Weather History for KMKE - April, 2014

Change the Weather History Date:

Wednesday, April 30, 2014

  Actual Average Record
Temperature  
Mean Temperature 49 °F 51 °F  
Max Temperature 55 °F 59 °F 85 °F (2013)
Min Temperature 42 °F 42 °F 29 °F (1969)
Degree Days  
Heating Degree Days 16 15  
Month to date heating degree days 624 589  
Since 1 July heating degree days 7390 6497  
Cooling Degree Days 0 0  
Month to date cooling degree days 0 5  
Year to date cooling degree days 0 5  
Moisture  
Dew Point 42 °F    
Average Humidity 78    
Maximum Humidity 93    
Minimum Humidity 63    
Precipitation  
Precipitation T in 0.12 in 1.26 in (1917)
Month to date precipitation 4.26 3.56  
Year to date precipitation 8.12 9.24  
Snow  
Snow 0.00 in 0.00 in 5.00 in (1907)
Month to date snowfall 0.3 2.0  
Since 1 July snowfall 63.4 46.8  
Snow Depth 0.00 in    
Sea Level Pressure  
Sea Level Pressure 29.72 in    
Wind  
Wind Speed 10 mph (SSW)    
Max Wind Speed 20 mph    
Max Gust Speed 24 mph    
Visibility 9 miles    
Events Rain    
T = Trace of Precipitation, MM = Missing Value Source: NWS Daily Summary

Daily Weather History Graph

Daily Weather History Graph

Search for Another Location

Airport or City:

Trip Planner

Search our weather history database for the weather conditions in past years. The results will help you decide how hot, cold, wet, or windy it might be!

Date:

Astronomy

Apr. 30, 2014 Rise Set
Actual Time 5:46 AM CDT 7:51 PM CDT
Civil Twilight 5:16 AM CDT 8:22 PM CDT
Nautical Twilight 4:38 AM CDT 9:00 PM CDT
Astronomical Twilight 3:56 AM CDT 9:42 PM CDT
Moon 6:47 AM CDT (4/30) 9:31 PM CDT (4/30)
Length of Visible Light 15h 06m
Length of Day
14h 04m
New Moon, 2% of the Moon is Illuminated
Apr 30
New Moon
May 6
First Quarter
May 14
Full
May 21
Last Quarter
May 28
New

Hourly Weather History & Observations

Time (CDT) Temp. Windchill Dew Point Humidity Pressure Visibility Wind Dir Wind Speed Gust Speed Precip Events Conditions
12:52 AM 46.0 °F 43.1 °F 44.1 °F 93% 29.68 in 8.0 mi SSE 5.8 mph - N/A   Overcast
1:52 AM 46.9 °F - 44.1 °F 90% 29.69 in 6.0 mi SSE 6.9 mph - 0.00 in Rain Light Rain
2:52 AM 46.0 °F 44.8 °F 45.0 °F 96% 29.68 in 5.0 mi SSE 3.5 mph - 0.00 in   Overcast
3:52 AM 46.0 °F 43.1 °F 45.0 °F 96% 29.68 in 4.0 mi South 5.8 mph - N/A   Overcast
4:08 AM 46.9 °F - 45.0 °F 93% 29.66 in 5.0 mi South 6.9 mph - N/A   Overcast
4:52 AM 48.0 °F - 45.0 °F 89% 29.68 in 5.0 mi South 5.8 mph - N/A   Overcast
5:11 AM 48.0 °F - 45.0 °F 89% 29.67 in 5.0 mi South 5.8 mph - N/A   Overcast
5:52 AM 46.9 °F - 44.1 °F 90% 29.69 in 4.0 mi South 4.6 mph - N/A   Scattered Clouds
6:52 AM 48.0 °F - 46.0 °F 93% 29.70 in 6.0 mi South 8.1 mph - N/A   Mostly Cloudy
7:52 AM 50.0 °F - 46.0 °F 86% 29.70 in 10.0 mi South 6.9 mph - N/A   Mostly Cloudy
8:44 AM 51.1 °F - 46.0 °F 83% 29.69 in 10.0 mi SSW 13.8 mph - N/A   Overcast
8:52 AM 51.1 °F - 46.0 °F 83% 29.70 in 10.0 mi SSW 13.8 mph - N/A   Overcast
9:52 AM 51.8 °F - 46.4 °F 82% 29.71 in 10.0 mi South 9.2 mph - N/A   Overcast
10:20 AM 53.1 °F - 46.9 °F 80% 29.71 in 10.0 mi South 10.4 mph - N/A   Overcast
10:52 AM 54.0 °F - 46.0 °F 75% 29.72 in 10.0 mi South 10.4 mph - N/A   Mostly Cloudy
11:14 AM 54.0 °F - 44.1 °F 69% 29.71 in 10.0 mi SSW 13.8 mph - N/A   Overcast
11:28 AM 54.0 °F - 45.0 °F 72% 29.72 in 10.0 mi SSW 11.5 mph - N/A   Mostly Cloudy
11:52 AM 55.0 °F - 46.0 °F 72% 29.72 in 10.0 mi SSW 10.4 mph - N/A   Overcast
12:52 PM 51.8 °F - 46.4 °F 82% 29.71 in 10.0 mi South 11.5 mph - N/A Rain Light Rain
1:18 PM 54.0 °F - 46.0 °F 75% 29.72 in 10.0 mi WSW 13.8 mph - 0.00 in Rain Light Rain
1:52 PM 53.1 °F - 44.1 °F 71% 29.73 in 10.0 mi SW 11.5 mph - 0.00 in   Overcast
2:52 PM 52.0 °F - 44.1 °F 74% 29.74 in 10.0 mi SW 16.1 mph - N/A   Overcast
3:52 PM 51.1 °F - 39.9 °F 66% 29.75 in 10.0 mi SW 13.8 mph - N/A   Mostly Cloudy
4:52 PM 48.9 °F - 37.9 °F 66% 29.76 in 10.0 mi SW 17.3 mph 23.0 mph N/A   Overcast
5:52 PM 46.9 °F - 36.0 °F 66% 29.76 in 10.0 mi SW 16.1 mph - N/A   Mostly Cloudy
6:20 PM 46.9 °F - 34.0 °F 61% 29.75 in 10.0 mi WSW 15.0 mph - N/A   Mostly Cloudy
6:37 PM 46.0 °F 39.6 °F 35.1 °F 66% 29.76 in 10.0 mi SW 15.0 mph 21.9 mph N/A   Mostly Cloudy
6:52 PM 46.0 °F 40.2 °F 35.1 °F 66% 29.77 in 10.0 mi SW 12.7 mph - N/A   Overcast
7:50 PM 44.6 °F 39.7 °F 35.6 °F 71% 29.76 in 10.0 mi WSW 9.2 mph - N/A   Mostly Cloudy
7:52 PM 45.0 °F 39.7 °F 35.1 °F 68% 29.77 in 10.0 mi SW 10.4 mph - N/A   Mostly Cloudy
8:52 PM 44.1 °F 40.1 °F 35.1 °F 71% 29.78 in 10.0 mi SW 6.9 mph - N/A   Mostly Cloudy
9:52 PM 44.1 °F 40.8 °F 36.0 °F 73% 29.78 in 10.0 mi SSW 5.8 mph - N/A   Overcast
10:52 PM 44.1 °F 40.1 °F 36.0 °F 73% 29.77 in 10.0 mi South 6.9 mph - N/A   Mostly Cloudy
11:52 PM 42.1 °F 36.6 °F 36.0 °F 79% 29.75 in 10.0 mi South 9.2 mph - N/A   Mostly Cloudy